Starlink 31716

operational
NORAD ID: 59377 Int'l Des: 2024-062 Owner: SPXS Country: US Constellation: starlink
LEOCIRCULAR

About Starlink 31716

Description loading...

Live Position

Loading 3D Globe...

Upcoming Passes

Altitude History

Altitude vs Time

uPlot chart will show altitude changes over time

Two-Line Element Set

1 59377U 24062D 25303.82593647 .00000115 00000-0 16011-4 0 9992
2 59377 53.1595 90.2213 0001193 74.0850 286.0282 15.30196360 90423
Epoch: Oct 30, 2025 • Age: 8 hours

Current Status

Altitude 476.7 km
Velocity 7.63 km/s
Sub-Earth Point 32.59°N, 19.75°E
Launch Date Apr 2, 2024
Age 1.5 years
Type internet

Technical Details

Classification Payload
Mass 730.00 kg
Dry Mass 700.00 kg
Total Mass 730.00 kg
Length 0.30 m
Diameter 4.10 m
Span 29.00 m
Shape Box + pan
Manufacturer SPXS
Bus Type Starlink V2M
Phase Status In Orbit
Owner/State SPXS/US

Large Constellations

Loading constellations...